User: anonymous   Login
Location: ????????
(54.9045°N, 39.1041°E)
Time: 12:27:18
(UTC+00:00)
Language:

NOAA 11 - Orbit

View from above orbital plane
View from above orbital plane
View from above satellite
View from above satellite

Ground track
Ground track

The orbit data is extracted from the following two-line orbital elements,

1 19531U 88089A   24173.52847493  .00000073  00000-0  58687-4 0  9999
2 19531  98.5182 135.9022 0010292 217.8283 142.2170 14.15543169844801
Epoch (UTC): 21 June 2024 12:41:00
Eccentricity: 0.0010292
inclination: 98.5182°
perigee height: 833 km
apogee height: 848 km
right ascension of ascending node: 135.9022°
argument of perigee: 217.8283°
revolutions per day: 14.15543169
mean anomaly at epoch: 142.2170°
orbit number at epoch: 84480

The dashed part of the orbit path shows where the satellite is in the earth's shadow,  

DLR